This is the latest recevied weather packets stored in our database for station/object HG5CJW-10. If no packets are shown the sender has not sent any weather packets the latest 10 day(s).
| Time | Temp. | Humidity | Pressure | Rain* | Wind** | Luminosity | Snow |
|---|---|---|---|---|---|---|---|
| 1788207451 | 26.67° C | 45% | 1033.4 hPa | - | - | - | - |
| 1788206551 | 27.22° C | 45% | 1033.5 hPa | - | - | - | - |
| 1788205651 | 27.22° C | 44% | 1033.5 hPa | - | - | - | - |
| 1788204751 | 27.78° C | 44% | 1033.5 hPa | - | - | - | - |
| 1788203851 | 27.78° C | 44% | 1033.3 hPa | - | - | - | - |
| 1788202951 | 27.78° C | 43% | 1033.3 hPa | - | - | - | - |
| 1788202051 | 27.78° C | 43% | 1033 hPa | - | - | - | - |
| 1788201145 | 28.33° C | 42% | 1033.2 hPa | - | - | - | - |
| 1788200245 | 28.89° C | 42% | 1033.1 hPa | - | - | - | - |
| 1788199345 | 28.89° C | 42% | 1033.1 hPa | - | - | - | - |
| 1788198445 | 29.44° C | 41% | 1032.8 hPa | - | - | - | - |
| 1788197545 | 29.44° C | 41% | 1032.7 hPa | - | - | - | - |
| 1788196645 | 29.44° C | 40% | 1032.6 hPa | - | - | - | - |
| 1788195745 | 30° C | 40% | 1032.6 hPa | - | - | - | - |
| 1788194845 | 29.44° C | 40% | 1032.1 hPa | - | - | - | - |
| 1788193945 | 30° C | 40% | 1032.7 hPa | - | - | - | - |
| 1788193045 | 30.56° C | 40% | 1032.8 hPa | - | - | - | - |
| 1788192145 | 30.56° C | 39% | 1032.9 hPa | - | - | - | - |
| 1788191245 | 30.56° C | 39% | 1032.8 hPa | - | - | - | - |
| 1788190344 | 30.56° C | 39% | 1033 hPa | - | - | - | - |
| 1788189444 | 30.56° C | 39% | 1033 hPa | - | - | - | - |
| 1788188544 | 30° C | 39% | 1032.6 hPa | - | - | - | - |
| 1788187639 | 30° C | 38% | 1033.1 hPa | - | - | - | - |
| 1788185839 | 30° C | 39% | 1033.2 hPa | - | - | - | - |
| 1788184939 | 30° C | 38% | 1033.3 hPa | - | - | - | - |
* Rain since midnight (hover to see other rain measurements)
** Current wind speed in m/s (hover to see current wind gust speed)